Regional Weather Roundup
Issued by NWS Jackson, KY

Home | Current Version | Previous Version | Text Only | Print | Product List | Glossary Off
Versions: 1 2 3 4 5 6 7 8 9 10 11 12 13 14 15 16 17 18 19 20 21 22 23 24 25 26 27 28 29 30 31 32 33 34 35 36 37 38 39 40 41 42 43 44 45 46 47 48 49 50

000
ASUS43 KJKL 231311
RWRJKL

EAST KENTUCKY HOURLY WEATHER ROUNDUP
NATIONAL WEATHER SERVICE JACKSON KY
900 AM EDT SAT AUG 23 2014

NOTE: "FAIR" INDICATES FEW OR NO CLOUDS BELOW 12,000 FEET WITH
NO SIGNIFICANT WEATHER AND/OR OBSTRUCTIONS TO VISIBILITY.

* THESE REPORTS ARE NOT UNDER NWS QUALITY CONTROL AND MAY NOT
  REPORT WEATHER SUCH AS PRECIPITATION AND FOG.

KYZ079-080-083-085-087-088-110-112-115-119-120-231400
...EASTERN KENTUCKY...

CITY           SKY/WX    TMP DP  RH WIND       PRES   REMARKS
JACKSON        FOG       71  69  93 CALM      30.04S VSB 1/4
LONDON         PTSUNNY   76  71  85 CALM      30.05S
SOMERSET*      PTSUNNY   73  73 100 CALM      30.05S
MONTICELLO*    MOSUNNY   77  75  94 CALM      30.05F FOG
WILLIAMSBURG*  MOSUNNY   73  73 100 CALM      30.05
MIDDLESBORO*   SUNNY     75  72  89 CALM      30.05S
HARLAN APT*    CLOUDY    72  72 100 MISG      30.06S
HAZARD APT*    PTSUNNY   72  72 100 CALM      30.04
BLACK MTN*       N/A     66  66 100 NE2         N/A
PIKEVILLE APT* CLOUDY    70  70 100 CALM      30.04F FOG
BIG SANDY*     CLOUDY    71  71 100 CALM      30.03S
MOREHEAD APT*  FOG       72  72 100 CALM      30.05R VSB<1/4
$$

KYZ035-036-041-042-044-050-067-078-099-231400
...CENTRAL KENTUCKY...

CITY           SKY/WX    TMP DP  RH WIND       PRES   REMARKS
MT STERLING*   SUNNY     72  72 100 W5        30.04S
FLEMING/MASON* FOG       72  72 100 CALM      30.03S VSB 0
DANVILLE*      PTSUNNY   72  70  94 CALM      30.05R
RICHMOND*      MOSUNNY   73  70  88 CALM      30.03S
LEXINGTON      SUNNY     76  71  85 CALM      30.03S
FRANKFORT      MOSUNNY   73  71  93 SW3       30.01S
$$

KYZ091>093-OHZ055-061-077-WVZ005-015-034-035-042-231400
...SOUTHERN OHIO/WEST VIRGINIA...

CITY           SKY/WX    TMP DP  RH WIND       PRES   REMARKS
COVINGTON      MOSUNNY   78  73  84 CALM      30.02R
COLUMBUS       MOSUNNY   75  69  81 CALM      30.01S HAZE
DAYTON         CLOUDY    74  72  93 CALM      30.03S FOG
WILMINGTON     SUNNY     73  71  93 CALM      30.02S FOG
HUNTINGTON     FOG       71  71 100 CALM      30.00S VSB 1/4
CHARLESTON     DRIZZLE   72  72 100 CALM      30.02S FOG
PINEVILLE*     CLOUDY    72  72 100 MISG      30.11S
BECKLEY        CLOUDY    69  67  93 CALM      30.09R FOG
BLUEFIELD      FOG       70  66  87 W3        30.12R VSB 3/4
$$

VAZ002-007-008-TNZ017-027-036-066-071-231400
...SOUTHWEST VIRGINIA/EAST TENNESSEE...

CITY           SKY/WX    TMP DP  RH WIND       PRES   REMARKS
WISE*          CLOUDY    72  72 100 W3        30.12S FOG
JONESVILLE*      N/A     72  72 100 CALM      30.07S
ABINGDON*      MOSUNNY   72  72 100 SW5       30.08S
BRISTOL        PTSUNNY   72  68  87 CALM      30.06S
KNOXVILLE      MOSUNNY   77  71  82 SW5       30.03S
OAK RIDGE      MOSUNNY   78  72  81 CALM      30.04S
CROSSVILLE     LGT RAIN  72  69  90 CALM      30.10S
NASHVILLE      PTSUNNY   79  72  79 CALM      30.04R
$$

...KEY TO REMARKS...
VSB - VISIBILITY IN MILES
WCI - WIND CHILL INDEX
HX  - HEAT INDEX

$$


USA.gov is the U.S. government's official web portal to all federal, state and local government web resources and services.